Home   Weather   Leuven   Past weeks

Flag for Belgium Past Weather in Leuven, Belgium — Yesterday and Last 2 Weeks

Now
64 °F

Clear.


Feels Like: 64 °F
Forecast: 58 / 75 °F
Wind: 6 mph from South

Location: Brussels National Airport

Current Time: Jul 22, 2017 at 12:55:55 am

Latest Report: Jul 22, 2017 at 12:20 am


Visibility: 10 mi

Pressure: 29.80 "Hg

Humidity: 68%

Dew Point: 54 °F

Location of LeuvenLocation

Past Weather in Leuven — Graph

°F

Leuven Temperature Yesterday

Maximum temperature yesterday: 79 °F (at 5:20 pm)
Minimum temperature yesterday: 50 °F (at 4:20 am)
Average temperature yesterday: 65 °F

High & Low Weather Summary for the Past Weeks

 TemperatureHumidityPressure
High84 °F (Jul 18, 4:20 pm)100% (Jul 9, 5:20 am)30.24 "Hg (Jul 9, 5:20 am)
Low45 °F (Jul 13, 5:20 am)30% (Jul 21, 5:20 pm)29.71 "Hg (Jul 12, 8:20 am)
Average66 °F69%30.00 "Hg
* Reported Jul 6 11:20 pm — Jul 21 11:20 pm, Leuven. Weather by CustomWeather, © 2017

Note: Actual official high and low records may vary slightly from our data, if they occured in-between our weather recording intervals... More about our weather records

Advertising

Leuven Weather History for the Previous 24 Hours

Scroll right to see more
 ConditionsComfort  
Time TempWeatherWind HumidityBarometerVisibility
11:20 pm
Fri, Jul 21
64 °FClear.5 mph68%29.80 "Hg10 mi
10:50 pm66 °FClear.6 mph64%29.80 "Hg10 mi
10:20 pm68 °FClear.6 mph56%29.80 "Hg10 mi
9:50 pm72 °FClear.6 mph50%29.80 "Hg10 mi
9:20 pm73 °FSunny.7 mph47%29.80 "Hg10 mi
8:50 pm75 °FSunny.6 mph44%29.80 "Hg10 mi
8:20 pm75 °FSunny.7 mph44%29.80 "Hg10 mi
7:50 pm79 °FPassing clouds.6 mph39%29.80 "HgN/A
7:20 pm79 °FSunny.7 mph37%29.80 "Hg10 mi
6:50 pm79 °FPassing clouds.9 mph34%29.80 "HgN/A
6:20 pm79 °FPassing clouds.8 mph32%29.83 "HgN/A
5:50 pm79 °FPassing clouds.7 mph32%29.83 "HgN/A
5:20 pm79 °FPassing clouds.8 mph30%29.83 "HgN/A
4:50 pm75 °FPassing clouds.7 mph36%29.86 "HgN/A
4:20 pm77 °FPassing clouds.7 mph34%29.86 "HgN/A
3:50 pm77 °FPassing clouds.8 mph34%29.89 "HgN/A
3:20 pm73 °FPassing clouds.6 mph38%29.89 "HgN/A
2:50 pm75 °FPassing clouds.7 mph36%29.89 "HgN/A
2:20 pm73 °FPassing clouds.3 mph41%29.92 "HgN/A
1:50 pm73 °FPassing clouds.6 mph41%29.92 "HgN/A
12:50 pm73 °FPassing clouds.6 mph38%29.95 "HgN/A
12:20 pm72 °FPassing clouds.8 mph38%29.95 "HgN/A
11:50 am70 °FPassing clouds.7 mph40%29.95 "HgN/A
11:20 am68 °FSunny.3 mph49%29.95 "Hg10 mi
10:50 am66 °FPassing clouds.6 mph46%29.95 "HgN/A
10:20 am66 °FPassing clouds.5 mph52%29.95 "HgN/A
9:50 am64 °FPassing clouds.3 mph52%29.98 "HgN/A
9:20 am63 °FPassing clouds.6 mph59%29.98 "HgN/A
8:50 am61 °FPassing clouds.7 mph68%29.98 "HgN/A
8:20 am59 °FPassing clouds.5 mph68%29.98 "HgN/A
7:50 am57 °FSunny.6 mph72%29.95 "Hg10 mi
7:20 am54 °FSunny.6 mph82%29.95 "Hg10 mi
6:50 am52 °FSunny.7 mph88%29.95 "Hg10 mi
6:20 am50 °FSunny.7 mph88%29.95 "Hg10 mi
5:50 am50 °FClear.7 mph88%29.95 "Hg10 mi
5:20 am50 °FClear.7 mph88%29.95 "Hg10 mi
4:50 am50 °FClear.7 mph88%29.95 "Hg10 mi
4:20 am50 °FClear.6 mph88%29.95 "Hg10 mi
3:50 am52 °FClear.6 mph82%29.95 "Hg10 mi
3:20 am52 °FClear.6 mph82%29.95 "Hg10 mi
2:50 am52 °FClear.6 mph88%29.95 "Hg10 mi
2:20 am54 °FClear.6 mph82%29.95 "Hg10 mi
1:50 am54 °FClear.5 mph82%29.95 "Hg10 mi
1:20 am54 °FClear.5 mph82%29.95 "Hg10 mi
12:50 am55 °FClear.6 mph72%29.95 "Hg10 mi
12:20 am59 °FClear.7 mph63%29.95 "Hg10 mi
Weather by CustomWeather, © 2017

See weather overviewHow to use our weather pages